Miscellaneous Local Product
Issued by NWS Hastings, NE

Home | Current Version | Previous Version | Graphics & Text | Print | Product List | Glossary On
Versions: 1 2 3 4 5 6 7 8 9 10 11 12 13 14 15 16 17 18 19 20 21 22 23 24 25 26 27 28 29 30 31 32 33 34 35 36 37 38 39 40 41 42 43 44 45 46 47 48 49 50
000
AXUS43 KGID 091502
MISGRI

GID CWA HOURLY WEATHER ROUNDUP
NATIONAL WEATHER SERVICE HASTINGS NE
900 AM CST FRI DEC 09 2016

NOTE: "FAIR" INDICATES FEW OR NO CLOUDS BELOW 12,000 FEET WITH NO
SIGNIFICANT WEATHER AND/OR OBSTRUCTIONS TO VISIBILITY.

...SOUTH CENTRAL NEBRASKA...

CITY           SKY/WX    TMP DP  RH WIND       PRES   REMARKS
GRAND ISLAND   CLOUDY    13   7  77 SE10      30.51S WCI   0
HASTINGS       CLOUDY    14   7  73 SE10      30.50S WCI   1
KEARNEY        CLOUDY    16   7  67 SE8       30.46R WCI   5
ORD            CLOUDY     9   2  73 SE7       30.47  WCI  -2
YORK           CLOUDY    10   7  85 SE9       30.55S WCI  -2
AURORA         CLOUDY    13   7  79 SE12      30.52R WCI  -1
LEXINGTON      CLOUDY    16   9  73 SE15      30.40S WCI   1
HOLDREGE       CLOUDY    15   8  72 S14       30.42F WCI   1
HEBRON         CLOUDY    16  11  80 SE7       30.58R WCI   6

...NEBRASKA PANHANDLE...

CITY           SKY/WX    TMP DP  RH WIND       PRES   REMARKS
CHADRON        CLOUDY     4  -2  76 N7        30.28R WCI  -8
ALLIANCE       CLOUDY    10   4  76 SE5       30.16R WCI   2
SCOTTSBLUFF    CLOUDY    16   8  71 E8        30.14R WCI   5
SIDNEY         CLOUDY    11   5  77 SW5       30.14R WCI   3

...WESTERN AND NORTH CENTRAL NEBRASKA...

CITY           SKY/WX    TMP DP  RH WIND       PRES   REMARKS
VALENTINE      LGT SNOW   9   2  73 E9        30.37F WCI  -4
AINSWORTH      CLOUDY    10   5  79 SE8       30.38F WCI  -2
ONEILL         CLOUDY     8   4  85 E3        30.50R
BROKEN BOW     CLOUDY    11   5  77 E10       30.40R WCI  -3
IMPERIAL       CLOUDY    13   7  77 S9        30.26S WCI   1
NORTH PLATTE   CLOUDY    15   5  64 SE10      30.32F WCI   2
MCCOOK         CLOUDY    16   8  71 SE8       30.35F WCI   5

...EASTERN NEBRASKA...

CITY           SKY/WX    TMP DP  RH WIND       PRES   REMARKS
NORFOLK        CLOUDY     7   2  80 E5        30.55R WCI  -2
SO SIOUX CITY  CLOUDY     8   2  76 NW5       30.63R WCI   0
TEKAMAH        CLOUDY     8   3  80 CALM      30.62F
COLUMBUS       CLOUDY     9   3  78 SE5       30.57S WCI   0
ALBION         CLOUDY     8   3  82 SE6       30.54R WCI  -2
OMAHA EPPLEY   PTSUNNY   11   4  73 CALM      30.64R
OFFUTT AFB     CLOUDY    11   7  84 CALM      30.63R
MILLARD        MOSUNNY   14   7  75 CALM      30.63S
LINCOLN        CLOUDY    12   6  77 CALM      30.63R
NEBRASKA CITY  CLOUDY    12   5  74 CALM      30.62R
BEATRICE       CLOUDY    13   9  82 CALM      30.61R
FALLS CITY     CLOUDY    12   8  84 CALM      30.64R

...NORTHERN KANSAS...

CITY           SKY/WX    TMP DP  RH WIND       PRES   REMARKS
GOODLAND       CLOUDY    12   7  80 SE10      30.24R WCI  -1
HILL CITY      CLOUDY    20   9  62 S12       30.43S WCI   8
NORTON         CLOUDY    16   9  73 SE13      30.38  WCI   2
PHILLIPSBURG   CLOUDY    18  12  79 E9        30.48F WCI   6
SMITH CENTER   CLOUDY    16  10  79 SE13      30.51S WCI   2
BELOIT         CLOUDY    18  10  73 SE8       30.55S WCI   7
HAYS           CLOUDY    20  11  68 SE14      30.47S WCI   7
RUSSELL        CLOUDY    19  11  70 S16       30.48F WCI   4
CONCORDIA      CLOUDY    19  12  74 S10       30.57S WCI   7
SALINA         CLOUDY    21  12  68 SE10      30.59S WCI  10
TOPEKA         CLOUDY    19  11  70 SE3       30.66R



USA.gov is the U.S. government's official web portal to all federal, state and local government web resources and services.